Location: Biltmore Gardens
(41.6070°N, 83.4666°W)
Time: 15:18:35
(UTC+00:00)

Cosmos 1633 - Pass Details

Date: 14 July 2020
Orbit: 463 x 482 km, 82.5° (Epoch: 13 August)

Event Time Altitude Azimuth Distance (km) Brightness Sun altitude
Exits shadow 04:39:15 42° 5° (N) 690 3.7 -25.2°
Drops below altitude 10° 04:41:45 10° 7° (N) 1,653 6.1 -25.4°
Sets 04:43:51 0° 8° (N) 2,532 7.3 -25.5°
